Weather History for Waupaca, WI

Change the Weather History Date:

Sunday, December 22, 2013

  Actual Average Record
Temperature  
Mean Temperature 22 °F -  
Max Temperature 25 °F 27 °F 49 °F (1957)
Min Temperature 20 °F 8 °F -16 °F (1989)
Degree Days  
Heating Degree Days 42    
Moisture  
Dew Point 19 °F    
Average Humidity 82    
Maximum Humidity 89    
Minimum Humidity 71    
Precipitation  
Precipitation 0.00 in - - ()
Sea Level Pressure  
Sea Level Pressure 29.91 in    
Wind  
Wind Speed 8 mph (North)    
Max Wind Speed 13 mph    
Max Gust Speed 18 mph    
Visibility 5 miles    
Events Snow    
Averages and records for this station are not official NWS values.
T = Trace of Precipitation, MM = Missing Value Source: NWS Daily Summary

Daily Weather History Graph

Daily Weather History Graph

Search for Another Location

Airport:

Trip Planner

Search our weather history database for the weather conditions in past years. The results will help you decide how hot, cold, wet, or windy it might be!

Date:

Astronomy

Dec. 22, 2013 Rise Set
Actual Time 7:29 AM CST 4:20 PM CST
Civil Twilight 6:56 AM CST 4:53 PM CST
Nautical Twilight 6:19 AM CST 5:30 PM CST
Astronomical Twilight 5:43 AM CST 6:05 PM CST
Moon 9:43 PM CST (12/22) 10:15 AM CST (12/22)
Length of Visible Light 9h 57m
Length of Day
8h 50m
Waning Gibbous, 76% of the Moon is Illuminated
Dec 22
Waning Gibbous
Dec 25
Last Quarter
Jan 1
New
Jan 7
First Quarter
Jan 15
Full

Hourly Weather History & Observations

Time (CST) Temp. Windchill Dew Point Humidity Pressure Visibility Wind Dir Wind Speed Gust Speed Precip Events Conditions
12:15 AM 25.7 °F 17.1 °F 19.9 °F 79% 29.82 in 10.0 mi North 8.1 mph - N/A   Overcast
12:35 AM 25.9 °F 16.6 °F 19.9 °F 78% 29.84 in 10.0 mi North 9.2 mph - N/A   Overcast
12:55 AM 25.7 °F 16.4 °F 19.9 °F 79% 29.82 in 10.0 mi North 9.2 mph - N/A   Overcast
1:15 AM 25.7 °F 16.4 °F 20.1 °F 79% 29.81 in 10.0 mi North 9.2 mph 16.1 mph N/A   Overcast
1:35 AM 25.7 °F 14.6 °F 20.3 °F 80% 29.80 in 10.0 mi NNE 12.7 mph 18.4 mph N/A   Overcast
1:55 AM 25.7 °F 15.7 °F 20.3 °F 80% 29.80 in 10.0 mi NNE 10.4 mph 17.3 mph N/A   Overcast
2:15 AM 25.7 °F 17.1 °F 20.3 °F 80% 29.80 in 10.0 mi NNE 8.1 mph - N/A   Overcast
2:35 AM 25.7 °F 16.4 °F 20.3 °F 80% 29.81 in 10.0 mi NNE 9.2 mph 16.1 mph N/A   Overcast
2:55 AM 25.7 °F 16.4 °F 20.3 °F 80% 29.79 in 10.0 mi NNE 9.2 mph - N/A   Overcast
3:15 AM 25.5 °F 15.5 °F 20.5 °F 81% 29.80 in 10.0 mi North 10.4 mph 17.3 mph N/A   Overcast
3:35 AM 25.2 °F 15.7 °F 20.3 °F 82% 29.79 in 10.0 mi North 9.2 mph - N/A   Overcast
3:55 AM 24.8 °F 14.0 °F 20.3 °F 83% 29.78 in 10.0 mi NNE 11.5 mph 18.4 mph N/A   Overcast
4:15 AM 24.8 °F 13.4 °F 20.3 °F 83% 29.78 in 10.0 mi North 12.7 mph 17.3 mph N/A   Overcast
4:35 AM 24.6 °F 15.1 °F 20.3 °F 84% 29.78 in 4.0 mi North 9.2 mph 16.1 mph N/A Snow Light Snow
4:55 AM 24.4 °F 14.2 °F 20.3 °F 84% 29.79 in 1.8 mi North 10.4 mph 17.3 mph N/A Snow Light Snow
5:15 AM 24.3 °F 15.4 °F 20.3 °F 85% 29.80 in 2.0 mi North 8.1 mph - N/A Snow Light Snow
5:35 AM 24.3 °F 14.6 °F 20.3 °F 85% 29.79 in 2.0 mi North 9.2 mph 16.1 mph N/A Snow Light Snow
5:55 AM 23.9 °F 12.9 °F 19.9 °F 85% 29.79 in 2.0 mi North 11.5 mph 17.3 mph N/A Snow Light Snow
6:15 AM 23.9 °F 13.5 °F 19.8 °F 84% 29.80 in 1.8 mi North 10.4 mph - N/A Snow Light Snow
6:35 AM 23.7 °F 13.3 °F 19.8 °F 85% 29.80 in 1.5 mi North 10.4 mph 16.1 mph N/A Snow Light Snow
6:55 AM 23.4 °F 13.5 °F 19.4 °F 85% 29.81 in 1.5 mi North 9.2 mph 17.3 mph N/A Snow Light Snow
7:15 AM 23.0 °F 11.7 °F 19.2 °F 85% 29.82 in 2.5 mi North 11.5 mph 16.1 mph N/A Snow Light Snow
7:35 AM 23.0 °F 12.4 °F 19.0 °F 85% 29.83 in 2.0 mi North 10.4 mph 17.3 mph N/A Snow Light Snow
7:55 AM 23.0 °F 11.7 °F 19.0 °F 85% 29.83 in 0.8 mi North 11.5 mph - N/A Snow Light Snow
8:15 AM 22.6 °F 12.6 °F 18.9 °F 85% 29.84 in 1.0 mi North 9.2 mph - N/A Snow Light Snow
8:35 AM 22.5 °F 12.4 °F 18.5 °F 85% 29.84 in 0.8 mi North 9.2 mph - N/A Snow Light Snow
8:55 AM 22.3 °F 13.0 °F 18.1 °F 84% 29.85 in 0.8 mi North 8.1 mph 18.4 mph N/A Snow Light Snow
9:15 AM 22.3 °F 10.8 °F 18.1 °F 84% 29.86 in 1.0 mi North 11.5 mph 17.3 mph N/A Snow Light Snow
9:35 AM 22.6 °F 11.3 °F 18.3 °F 83% 29.87 in 1.0 mi North 11.5 mph 17.3 mph N/A Snow Light Snow
9:55 AM 22.6 °F 12.6 °F 18.1 °F 83% 29.88 in 1.0 mi North 9.2 mph - N/A Snow Light Snow
10:15 AM 23.0 °F 13.1 °F 18.3 °F 82% 29.88 in 1.2 mi North 9.2 mph - N/A Snow Light Snow
10:35 AM 23.5 °F 13.7 °F 18.1 °F 80% 29.89 in 1.5 mi North 9.2 mph - N/A Snow Light Snow
10:55 AM 23.9 °F 12.9 °F 18.1 °F 79% 29.89 in 1.8 mi North 11.5 mph - N/A Snow Light Snow
11:15 AM 23.9 °F 15.0 °F 17.8 °F 77% 29.90 in 1.8 mi North 8.1 mph - N/A Snow Light Snow
11:35 AM 24.4 °F 15.6 °F 18.1 °F 77% 29.89 in 2.0 mi North 8.1 mph - N/A Snow Light Snow
11:55 AM 24.8 °F 16.1 °F 18.0 °F 75% 29.86 in 2.0 mi NNE 8.1 mph - N/A Snow Light Snow
12:15 PM 25.5 °F 15.5 °F 17.6 °F 72% 29.88 in 4.0 mi North 10.4 mph - N/A Snow Light Snow
12:35 PM 25.2 °F 15.1 °F 17.2 °F 72% 29.89 in 7.0 mi North 10.4 mph 16.1 mph N/A   Scattered Clouds
12:55 PM 25.7 °F 17.1 °F 17.6 °F 71% 29.89 in 10.0 mi North 8.1 mph - N/A   Mostly Cloudy
1:15 PM 25.5 °F 17.8 °F 17.6 °F 72% 29.89 in 10.0 mi North 6.9 mph - N/A   Overcast
1:35 PM 24.8 °F 16.1 °F 17.2 °F 73% 29.90 in 7.0 mi North 8.1 mph - N/A Snow Light Snow
1:55 PM 24.8 °F 16.9 °F 17.6 °F 74% 29.90 in 7.0 mi North 6.9 mph - N/A Snow Light Snow
2:15 PM 25.5 °F 17.8 °F 17.8 °F 72% 29.91 in 10.0 mi North 6.9 mph - N/A   Overcast
2:35 PM 25.7 °F 19.0 °F 17.6 °F 71% 29.92 in 7.0 mi North 5.8 mph - N/A Snow Light Snow
2:55 PM 25.7 °F 19.0 °F 18.5 °F 74% 29.93 in 5.0 mi North 5.8 mph - N/A Snow Light Snow
3:15 PM 25.2 °F 19.5 °F 18.3 °F 75% 29.95 in 3.0 mi North 4.6 mph - N/A Snow Light Snow
3:35 PM 24.8 °F 17.9 °F 18.5 °F 77% 29.96 in 4.0 mi North 5.8 mph - N/A Snow Light Snow
3:55 PM 24.8 °F 17.9 °F 19.0 °F 79% 29.97 in 3.0 mi NNW 5.8 mph - N/A Snow Light Snow
4:15 PM 24.4 °F 17.5 °F 18.5 °F 78% 29.98 in 3.0 mi NNE 5.8 mph - N/A Snow Light Snow
4:35 PM 24.1 °F 18.2 °F 18.9 °F 80% 29.99 in 4.0 mi North 4.6 mph - N/A Snow Light Snow
4:55 PM 23.9 °F - 19.4 °F 83% 30.00 in 4.0 mi Calm Calm - N/A Snow Light Snow
5:15 PM 23.9 °F - 19.9 °F 85% 30.01 in 3.0 mi Calm Calm - N/A Snow Light Snow
5:35 PM 23.9 °F 19.5 °F 20.1 °F 85% 30.01 in 3.0 mi NNW 3.5 mph - N/A Snow Light Snow
5:55 PM 23.7 °F 19.3 °F 19.9 °F 85% 30.01 in 5.0 mi North 3.5 mph - N/A Snow Light Snow
6:15 PM 23.7 °F - 19.9 °F 85% 30.01 in 4.0 mi Calm Calm - N/A Snow Light Snow
6:35 PM 23.5 °F - 19.6 °F 85% 30.01 in 5.0 mi Calm Calm - N/A Snow Light Snow
6:55 PM 23.0 °F - 19.4 °F 86% 30.01 in 4.0 mi Calm Calm - N/A Snow Light Snow
7:15 PM 22.3 °F - 18.9 °F 87% 30.02 in 3.0 mi Calm Calm - N/A Snow Light Snow
7:35 PM 22.1 °F - 18.9 °F 87% 30.03 in 2.5 mi Calm Calm - N/A Snow Light Snow
7:55 PM 20.5 °F - 17.2 °F 87% 30.04 in 4.0 mi Calm Calm - N/A Snow Light Snow
8:15 PM 21.2 °F - 18.5 °F 89% 30.04 in 2.0 mi Calm Calm - N/A Snow Light Snow
8:35 PM 20.7 °F - 17.6 °F 88% 30.04 in 1.5 mi Calm Calm - N/A Snow Light Snow
8:55 PM 21.2 °F - 18.3 °F 89% 30.04 in 7.0 mi Calm Calm - N/A Snow Light Snow
9:15 PM 20.5 °F - 17.4 °F 88% 30.05 in 5.0 mi Calm Calm - N/A Snow Light Snow
9:35 PM 20.7 °F - 17.8 °F 89% 30.05 in 4.0 mi Calm Calm - N/A Snow Light Snow
9:55 PM 20.8 °F - 18.1 °F 89% 30.06 in 3.0 mi Calm Calm - N/A Snow Light Snow
10:15 PM 20.8 °F - 18.0 °F 89% 30.07 in 2.0 mi Calm Calm - N/A Snow Light Snow
10:35 PM 21.2 °F - 18.3 °F 89% 30.08 in 2.5 mi Calm Calm - N/A Snow Light Snow
10:55 PM 21.2 °F - 18.3 °F 89% 30.08 in 4.0 mi Calm Calm - N/A Snow Light Snow
11:15 PM 21.0 °F - 18.1 °F 89% 30.09 in 4.0 mi Calm Calm - N/A Snow Light Snow
11:35 PM 21.2 °F 14.9 °F 18.5 °F 89% 30.10 in 7.0 mi NW 4.6 mph - N/A Snow Light Snow
11:55 PM 22.1 °F 17.4 °F 19.2 °F 89% 30.10 in 10.0 mi North 3.5 mph - N/A Snow Light Snow